This is the latest recevied weather packets stored in our database for station/object AE0NK. If no packets are shown the sender has not sent any weather packets the latest 10 day(s).
| Time | Temp. | Humidity | Pressure | Rain* | Wind** | Luminosity | Snow |
|---|---|---|---|---|---|---|---|
| 1777941204 | 21.11° C | 31% | 1000.4 hPa | 0 mm | - | 25 W/m² | - |
| 1777940903 | 21.11° C | 31% | 1000.2 hPa | 0 mm | - | 39 W/m² | - |
| 1777940600 | 21.67° C | 31% | 1000.1 hPa | 0 mm | - | 51 W/m² | - |
| 1777940298 | 21.67° C | 33% | 1000.1 hPa | 0 mm | - | 62 W/m² | - |
| 1777939997 | 22.22° C | 30% | 1000 hPa | 0 mm | - | 76 W/m² | - |
| 1777939694 | 22.22° C | 30% | 999.8 hPa | 0 mm | - | 90 W/m² | - |
| 1777939395 | 22.78° C | 31% | 999.7 hPa | 0 mm | - | 104 W/m² | - |
| 1777939110 | 22.78° C | 30% | 999.5 hPa | 0 mm | - | 102 W/m² | - |
| 1777938807 | 22.78° C | 31% | 999.4 hPa | 0 mm | - | 77 W/m² | - |
| 1777938501 | 23.33° C | 31% | 999.3 hPa | 0 mm | - | 83 W/m² | - |
| 1777938200 | 23.33° C | 32% | 999.2 hPa | 0 mm | - | 125 W/m² | - |
| 1777937897 | 23.89° C | 31% | 999.1 hPa | 0 mm | - | 58 W/m² | - |
| 1777937597 | 23.89° C | 30% | 999 hPa | 0 mm | - | 60 W/m² | - |
| 1777937296 | 24.44° C | 29% | 999 hPa | 0 mm | - | 62 W/m² | - |
| 1777936994 | 24.44° C | 29% | 999 hPa | 0 mm | - | 63 W/m² | - |
| 1777936693 | 24.44° C | 33% | 999.1 hPa | 0 mm | - | 65 W/m² | - |
| 1777936409 | 24.44° C | 33% | 999 hPa | 0 mm | - | 70 W/m² | - |
| 1777936107 | 25° C | 33% | 998.8 hPa | 0 mm | - | 264 W/m² | - |
| 1777935806 | 25° C | 32% | 998.7 hPa | 0 mm | - | 287 W/m² | - |
| 1777935500 | 25° C | 32% | 998.8 hPa | 0 mm | - | 304 W/m² | - |
| 1777935217 | 25° C | 33% | 998.8 hPa | 0 mm | - | 304 W/m² | - |
| 1777934908 | 25° C | 34% | 998.7 hPa | 0 mm | - | 369 W/m² | - |
| 1777934604 | 25° C | 35% | 998.7 hPa | 0 mm | - | 123 W/m² | - |
| 1777934301 | 25° C | 39% | 998.7 hPa | 0 mm | - | 79 W/m² | - |
| 1777933998 | 25° C | 38% | 998.6 hPa | 0 mm | - | 88 W/m² | - |
* Rain latest hour (hover to see other rain measurements)
** Current wind speed in m/s (hover to see current wind gust speed)